Lexington, KY

3:36 AM EDT on September 29, 2016 (GMT -0400)
Blue Grass

Weather History for KLEX - February, 2013

Change the Weather History Date:

Saturday, February 2, 2013

  Actual Average Record
Temperature  
Mean Temperature 24 °F 34 °F  
Max Temperature 32 °F 42 °F 72 °F (2016)
Min Temperature 15 °F 26 °F -15 °F (1951)
Degree Days  
Heating Degree Days 41 31  
Month to date heating degree days 93 62  
Since 1 July heating degree days 2772 2845  
Cooling Degree Days 0 0  
Month to date cooling degree days 0 0  
Year to date cooling degree days 0 0  
Moisture  
Dew Point 22 °F    
Average Humidity 87    
Maximum Humidity 100    
Minimum Humidity 73    
Precipitation  
Precipitation 0.15 in 0.11 in 2.33 in (1939)
Month to date precipitation 0.15 0.23  
Year to date precipitation 4.61 3.43  
Snow  
Snow 2.10 in 0.20 in 2.20 in (2007)
Month to date snowfall 2.1 0.4  
Since 1 July snowfall 8.0 7.1  
Snow Depth 1.00 in    
Sea Level Pressure  
Sea Level Pressure 30.16 in    
Wind  
Wind Speed 9 mph (SW)    
Max Wind Speed 17 mph    
Max Gust Speed 23 mph    
Visibility 5 miles    
Events Fog , Snow    
T = Trace of Precipitation, MM = Missing Value Source: NWS Daily Summary

Daily Weather History Graph

Daily Weather History Graph

Search for Another Location

Airport or City:

Trip Planner

Search our weather history database for the weather conditions in past years. The results will help you decide how hot, cold, wet, or windy it might be!

Date:

Astronomy

Feb. 02, 2013 Rise Set
Actual Time 7:41 AM EST 6:02 PM EST
Civil Twilight 7:14 AM EST 6:30 PM EST
Nautical Twilight 6:42 AM EST 7:02 PM EST
Astronomical Twilight 6:11 AM EST 7:33 PM EST
Moon 12:01 AM EST (2/2) 10:59 AM EST (2/2)
Length of Visible Light 11h 16m
Length of Day
10h 21m
Waning Gibbous, 60% of the Moon is Illuminated
Feb 2
Waning Gibbous
Feb 3
Last Quarter
Feb 10
New
Feb 17
First Quarter
Feb 25
Full

Hourly Weather History & Observations

Time (EST) Temp. Windchill Dew Point Humidity Pressure Visibility Wind Dir Wind Speed Gust Speed Precip Events Conditions
12:54 AM 16.0 °F 6.3 °F 10.9 °F 81% 30.35 in 10.0 mi South 6.9 mph - N/A   Mostly Cloudy
1:54 AM 18.0 °F 9.8 °F 12.0 °F 78% 30.34 in 10.0 mi South 5.8 mph - N/A   Scattered Clouds
2:54 AM 18.0 °F 9.8 °F 12.9 °F 81% 30.32 in 10.0 mi South 5.8 mph - N/A   Overcast
3:54 AM 19.9 °F 12.1 °F 14.0 °F 78% 30.31 in 10.0 mi South 5.8 mph - N/A   Overcast
4:54 AM 19.9 °F 10.1 °F 14.0 °F 78% 30.29 in 10.0 mi South 8.1 mph - N/A   Overcast
5:54 AM 21.9 °F 9.8 °F 15.1 °F 75% 30.27 in 10.0 mi SSW 12.7 mph - N/A   Overcast
6:01 AM 21.2 °F 8.3 °F 15.8 °F 80% 30.23 in 2.0 mi SSW 13.8 mph - 0.00 in Snow Light Snow
6:36 AM 21.2 °F 11.7 °F 17.6 °F 86% 30.22 in 2.0 mi SSW 8.1 mph - 0.00 in Snow Light Snow
6:54 AM 21.0 °F 10.6 °F 19.0 °F 92% 30.27 in 3.0 mi SSW 9.2 mph - 0.01 in Snow Light Snow
7:07 AM 21.2 °F 10.9 °F 19.4 °F 93% 30.22 in 2.0 mi SSW 9.2 mph - 0.00 in Snow Light Snow
7:15 AM 21.2 °F 10.1 °F 19.4 °F 93% 30.22 in 1.8 mi SSW 10.4 mph - 0.00 in Snow Light Snow
7:25 AM 21.2 °F 10.9 °F 19.4 °F 93% 30.22 in 2.5 mi SSW 9.2 mph - 0.01 in Snow Light Snow
7:33 AM 21.2 °F 11.7 °F 19.4 °F 93% 30.22 in 1.5 mi SSW 8.1 mph - 0.01 in Snow Light Snow
7:45 AM 21.2 °F 10.1 °F 19.4 °F 93% 30.22 in 1.2 mi SSW 10.4 mph - 0.01 in Snow Light Snow
7:54 AM 21.9 °F 11.7 °F 19.9 °F 92% 30.26 in 0.8 mi SSW 9.2 mph - 0.02 in Snow Light Snow
8:17 AM 21.2 °F 11.7 °F 21.2 °F 100% 30.22 in 1.5 mi SSW 8.1 mph - 0.01 in Snow Light Snow
8:30 AM 21.2 °F 11.7 °F 19.4 °F 93% 30.22 in 0.8 mi SW 8.1 mph - 0.01 in Snow Light Snow
8:50 AM 21.2 °F 10.9 °F 21.2 °F 100% 30.21 in 0.2 mi South 9.2 mph - 0.04 in Fog , Snow Snow
8:54 AM 21.9 °F 11.7 °F 21.0 °F 96% 30.25 in 0.2 mi South 9.2 mph - 0.04 in Fog , Snow Snow
9:02 AM 21.2 °F 11.7 °F 21.2 °F 100% 30.20 in 0.5 mi South 8.1 mph - 0.01 in Fog , Snow Snow
9:04 AM 21.2 °F 11.7 °F 21.2 °F 100% 30.20 in 0.2 mi South 8.1 mph - 0.01 in Fog , Snow Light Snow
9:27 AM 23.0 °F 13.1 °F 21.2 °F 93% 30.19 in 0.8 mi SSW 9.2 mph - 0.03 in Snow Light Snow
9:44 AM 23.0 °F 11.1 °F 21.2 °F 93% 30.18 in 1.0 mi SSW 12.7 mph - 0.03 in Snow Light Snow
9:54 AM 23.0 °F 10.6 °F 21.0 °F 92% 30.22 in 0.8 mi SSW 13.8 mph - 0.04 in Snow Light Snow
10:09 AM 24.8 °F 14.6 °F 21.2 °F 86% 30.17 in 0.5 mi South 10.4 mph - 0.01 in Fog , Snow Snow
10:24 AM 24.8 °F 14.0 °F 21.2 °F 86% 30.15 in 1.0 mi South 11.5 mph - 0.01 in Snow Light Snow
10:43 AM 24.8 °F 14.0 °F 23.0 °F 93% 30.13 in 2.0 mi South 11.5 mph - 0.01 in Snow Light Snow
10:51 AM 24.8 °F 12.9 °F 23.0 °F 93% 30.13 in 4.0 mi South 13.8 mph - 0.01 in Snow Light Snow
10:54 AM 25.0 °F 13.1 °F 23.0 °F 92% 30.17 in 5.0 mi South 13.8 mph - 0.01 in Snow Light Snow
11:54 AM 27.0 °F 15.6 °F 23.0 °F 85% 30.14 in 10.0 mi South 13.8 mph - 0.00 in   Overcast
12:54 PM 28.9 °F 18.2 °F 25.0 °F 85% 30.09 in 10.0 mi SSW 13.8 mph - 0.00 in   Overcast
1:54 PM 32.0 °F 20.8 °F 26.1 °F 79% 30.06 in 10.0 mi SSW 17.3 mph - N/A   Overcast
2:46 PM 30.2 °F 19.8 °F 26.6 °F 86% 30.02 in 2.5 mi SW 13.8 mph - N/A Snow Light Snow
2:52 PM 30.2 °F 21.3 °F 28.4 °F 93% 30.02 in 1.8 mi SW 10.4 mph - 0.00 in Snow Light Snow
2:54 PM 30.9 °F 21.7 °F 28.0 °F 89% 30.05 in 1.5 mi SW 11.5 mph - 0.00 in Snow Light Snow
3:31 PM 30.2 °F 22.6 °F 28.4 °F 93% 30.01 in 1.5 mi SW 8.1 mph - 0.01 in Snow Light Snow
3:54 PM 30.9 °F 23.5 °F 28.9 °F 92% 30.04 in 1.5 mi SW 8.1 mph - 0.01 in Snow Light Snow
4:54 PM 30.9 °F 26.2 °F 30.0 °F 96% 30.05 in 2.0 mi West 4.6 mph - 0.02 in Snow Light Snow
5:03 PM 30.2 °F 25.4 °F 30.2 °F 100% 30.01 in 3.0 mi West 4.6 mph - 0.00 in Snow Light Snow
5:24 PM 30.2 °F 21.9 °F 30.2 °F 100% 30.02 in 10.0 mi West 9.2 mph - 0.00 in   Overcast
5:32 PM 30.2 °F 23.4 °F 28.4 °F 93% 30.02 in 7.0 mi West 6.9 mph - 0.00 in   Overcast
5:54 PM 30.9 °F 27.5 °F 28.9 °F 92% 30.04 in 10.0 mi WSW 3.5 mph - 0.00 in   Overcast
6:54 PM 30.9 °F 25.2 °F 28.9 °F 92% 30.06 in 10.0 mi West 5.8 mph - N/A   Overcast
7:54 PM 30.9 °F 23.5 °F 27.0 °F 85% 30.08 in 10.0 mi WNW 8.1 mph - N/A   Overcast
8:54 PM 30.0 °F 21.1 °F 25.0 °F 82% 30.08 in 10.0 mi WNW 10.4 mph - N/A   Overcast
9:54 PM 28.9 °F 21.9 °F 24.1 °F 82% 30.10 in 10.0 mi WNW 6.9 mph - N/A   Overcast
10:54 PM 28.0 °F 24.2 °F 23.0 °F 81% 30.08 in 10.0 mi SW 3.5 mph - N/A   Mostly Cloudy
11:54 PM 28.0 °F 22.8 °F 23.0 °F 81% 30.07 in 10.0 mi SW 4.6 mph - N/A   Mostly Cloudy